Location: Prague
(50.0830°N, 14.4670°E)
Time: 02:40:18
(UTC+01:00)

XW-2F - Pass Details

Date: 03 December 2021
Orbit: 495 x 515 km, 97.5° (Epoch: 16 January)

Event Time Altitude Azimuth Distance (km) Brightness Sun altitude
Rises 06:47:17 0° 9° (N) 2,653 ? -8.4°
Reaches altitude 10° 06:49:26 10° 4° (N) 1,760 ? -8.1°
Maximum altitude 06:53:07 52° 288° (WNW) 651 ? -7.6°
Drops below altitude 10° 06:56:47 10° 212° (SSW) 1,743 ? -7.1°
Sets 06:58:54 0° 207° (SSW) 2,623 ? -6.8°
